Voltar ao catálogo

STARLINK-37629

AtivoComunicaçõesVLEO
NORAD 69443·PAYLOAD·🇺🇸 United States

Lançado Jun 8, 2026 de Cape Canaveral Space Force Station

Loading…

Próximas Passagens (próximas 24 horas)

TLE

AtualizadoSource: CelesTrak SupGP

Época: Sep 15, 2026, 04:16 UTC

1 69443C 26127A   26258.17826389 -.00044147  00000+0 -13046-2 0  2586
2 69443  53.1571 190.6276 0001279  90.0742 307.5831 15.34406997    18

Acompanhe STARLINK-37629 em tempo real com AllMySat

Download on the App Store